AGROMETEOROLOŠKI PORTAL

vinorodna pokrajina

Temelj dobrega kmetovanja

Pregled podatkov za lokacijo PODČETRTEK - ATOMSKE TOPLICE ARSO, meteorološka postaja 127

Pregled senzorjev na lokaciji

ID Ime Zadnja
vrednost
Datum in čas
meritve
(lokalni čas)
Tip
senzorja
6042 Zračni tlak (hPa) 994 hPa 1.2.2023 13:00 ARSO
2862 Sončno sevanje (W/m2) 459 W/m2 1.2.2023 13:00 ARSO
2868 Padavine (mm) 0 mm 1.2.2023 13:00 ARSO
2876 Relativna zračna vlaga (2 m) (% RH) 51 % RH 1.2.2023 13:00 ARSO
2875 Temperatura (2 m) (°C) 8,7 °C 1.2.2023 13:00 ARSO
2880 Smer vetra (2 m) (°) 12 ° 1.2.2023 13:00 ARSO
2881 Hitrost vetra (2 m) (km/h) 3 km/h 1.2.2023 13:00 ARSO

Pregled podatkov zadnjih 24 ur

Zap.
št.
Datum in čas
(lokalni čas)
PODČETRTEK - ATOMSKE TOPLICE ARSO
Zračni
tlak
Sončno
sevanje
Padavine Relativna
zračna
vlaga
(2
m)
Temperatura
(2
m)
Smer
vetra
(2
m)
Hitrost
vetra
(2
m)
1 1.2.2023 13:00 993,5 459 0 51 8,7 12 3
2 1.2.2023 12:30 994 446 0 54 7,3 12 3
3 1.2.2023 12:00 994,5 433 0 61 6,2 125 2
4 1.2.2023 11:30 995,1 412 0 64 4,9 135 2
5 1.2.2023 11:00 995,6 385 0 69 3,4 110 2
6 1.2.2023 10:30 995,5 393 0 74 1,8 60 4
7 1.2.2023 10:00 995,5 424 0 79 0,4 21 5
8 1.2.2023 09:30 995,7 344 0 85 -0,9 51 3
9 1.2.2023 09:00 995,8 180 0 90 -2,3 30 6
10 1.2.2023 08:30 995,7 48 0 91 -3,2 37 2
11 1.2.2023 08:00 995,6 9 0 91 -3,3 28 5
12 1.2.2023 07:30 995,6 0 0 90 -3,2 24 2
13 1.2.2023 07:00 995,6 0 0 91 -3,1 33 3
14 1.2.2023 06:30 995,6 0 0 90 -3,1 38 3
15 1.2.2023 06:00 995,6 0 0 89 -2,8 52 1
16 1.2.2023 05:30 995,5 0 0 89 -2,6 58 1
17 1.2.2023 05:00 995,2 0 0 89 -2,5 46 3
18 1.2.2023 04:30 995,1 0 0 90 -2,4 31 4
19 1.2.2023 04:00 995,4 0 0 89 -2,2 25 4
20 1.2.2023 03:30 995,5 0 0 89 -2,1 48 2
21 1.2.2023 03:00 995,6 0 0 88 -1,9 29 4
22 1.2.2023 02:30 995,7 0 0 88 -1,7 39 2
23 1.2.2023 02:00 995,8 0 0 88 -1,5 41 4
24 1.2.2023 01:30 995,8 0 0 88 -1,4 34 3
25 1.2.2023 01:00 995,8 0 0 88 -1,3 35 3
26 1.2.2023 00:30 995,9 0 0 87 -1 34 2
27 1.2.2023 00:00 995,9 0 0 86 -0,6 16 7
28 31.1.2023 23:30 995,8 0 0 86 -0,6 17 4
29 31.1.2023 23:00 995,8 0 0 86 -0,4 46 3
30 31.1.2023 22:30 996 0 0 86 0 33 4
31 31.1.2023 22:00 996,2 0 0 85 0,2 22 4
32 31.1.2023 21:30 996,1 0 0 82 0,8 8 5
33 31.1.2023 21:00 996,1 0 0 81 1,2 14 4
34 31.1.2023 20:30 995,8 0 0 80 1,5 73 1
35 31.1.2023 20:00 995,6 0 0 78 1,9 348 1
36 31.1.2023 19:30 995,7 0 0 76 2,4 27 2
37 31.1.2023 19:00 995,7 0 0 72 3 209 1
38 31.1.2023 18:30 995,9 0 0 70 3,8 225 2
39 31.1.2023 18:00 995,9 0 0 67 4,7 220 1
40 31.1.2023 17:30 996,1 0 0 60 6,1 231 3
41 31.1.2023 17:00 996,1 9 0 55 7,4 222 2
42 31.1.2023 16:30 995,9 36 0 40 9,1 210 3
43 31.1.2023 16:00 995,9 129 0 31 10,4 219 3
44 31.1.2023 15:30 996,1 229 0 28 10,7 223 5
45 31.1.2023 15:00 996,2 301 0 28 10,5 302 3
46 31.1.2023 14:30 996,2 344 0 29 10,2 331 5
47 31.1.2023 14:00 996,2 393 0 30 9,9 336 5
48 31.1.2023 13:30 996,3 429 0 30 9,7 352 7